Regional Weather Roundup
Issued by NWS Midland/Odessa, TX

Skip options and go directly to product.
Home | Oldest Version | Previous Version | Current Version | All | Text Only | Save Text | Print | Product List | Glossary Off

Skip product version selection by date and time.   

068
ASUS44 KMAF 300810
RWRMAF
MIDLAND AREA WEATHER ROUNDUP
NATIONAL WEATHER SERVICE MIDLAND TX
300 AM CDT TUE JUN 30 2015

...IN SOUTHWEST TEXAS AND SOUTHEAST NEW MEXICO...

CITY           SKY/WX    TMP DP  RH WIND       PRES   REMARKS
ALPINE         MOCLDY    68  62  80 W3        30.19F
ANDREWS        FAIR      69  62  76 N8        30.10R
ARTESIA        CLEAR     70  63  78 NW7       30.11F
BIG SPRING     CLOUDY    72  64  76 SE12G17   30.11R THUNDER
CARLSBAD       CLEAR     70  64  81 W7        30.06F
DRYDEN           N/A     75  66  73 CALM      30.00F
FORT STOCKTON  MOCLDY    74  65  73 S17G23    30.04F
GUAD PASS      PTCLDY    71  53  52 CALM      30.22F
HOBBS          PTCLDY    64  64 100 CALM      30.11F
MARFA          MOCLDY   N/A N/A N/A SE7       30.17F
MIDLAND AIRPK  CLOUDY    80  65  58 SW7G16    30.06R
MIDLAND INTL   PTCLDY    79  65  62 S9        30.05F
ODESSA         PTCLDY    79  64  60 S12       30.06F
PECOS          CLOUDY    77  65  65 E6        30.02F
PRESIDIO       FAIR      80  65  60 NE13      30.02R
SEMINOLE       PTCLDY    68  63  85 N6        30.11R
SNYDER         LGT RAIN  64  63  95 NE14G23   30.11R
WINK           MOCLDY    75  66  73 S5        30.03F
$$
...OTHER STATIONS IN TEXAS...

CITY           SKY/WX    TMP DP  RH WIND       PRES   REMARKS
ABILENE        HVY RAIN  70  67  90 N15       30.08R FOG
AMARILLO       CLEAR     61  58  90 SW5       30.14F
AUSTIN         PTCLDY    75  75 100 S6        30.02S
BROWNSVILLE    PTCLDY    79  75  87 E6        29.97F
CORPUS CHRISTI PTCLDY    79  77  94 SE5       29.99F
DALLAS FTW     MOCLDY    79  64  60 NE22G29   30.02R
DEL RIO        CLEAR     77  71  82 E9        29.97F
EL PASO        MOCLDY    73  59  61 S5        30.09F
HOUSTON INT    MOCLDY    80  75  84 SW6       30.01F
LUBBOCK        PTCLDY    64  61  90 SE3       30.11F
SAN ANGELO     CLOUDY    71  66  84 W8        30.04F
SAN ANTONIO    CLOUDY    79  73  82 S12       30.03S
WACO           PTCLDY    78  74  87 S10       29.98F
WICHITA FALLS  NOT AVBL
$$
...OTHER LOCATIONS IN NEW MEXICO...

CITY           SKY/WX    TMP DP  RH WIND       PRES   REMARKS
ALAMAGORDO     PTCLDY    75  48  38 N13       30.11F
ALBUQUERQUE    PTCLDY    76  46  34 E17       30.23R
CANNON AFB     CLEAR     65  57  75 N8        30.16F
CLOVIS         CLEAR     63  55  77 NW5         N/A
HOLLOMAN AFB   PTCLDY    74  54  50 SW9       30.10R
ROSWELL        CLEAR     68  62  81 E5        30.12F
RUIDOSO        PTCLDY    59  54  82 W3        30.34F HAZE
SANTA FE       CLEAR     65  47  52 SE12      30.32S
TRUTH OR CONSE MOCLDY    77  51  40 W3        30.16S
TUCUMCARI      CLEAR     63  53  70 SW6       30.17F
$$

USA.gov is the U.S. government's official web portal to all federal, state and local government web resources and services.